SL-24 R/B

Satellite information

Favourite Embed

Satellite Type and Status

ROCKET BODYIN ORBIT

Key statistics

Satellite SL-24 R/B at a glance.

Uptime

4400

Days in orbit

Revolutions

≈ 14.1

Per day

Orbit

SSO

Sun Synchronous Orbit

Inclination

97.5

Latest

Satellite identification and parameters

Extended collection of information and parameters for SL-24 R/B.

Object identification

Identified? True

Debris? False

Object name: SL-24 R/B

International designator: 2013-042B

Object number (NORAD): 39228

Object ID (CCSDS): 39228

Country: COMMONWEALTH OF INDEPENDENT STATES (CIS)

Current information (Y/N): Y

RCS size: LARGE

Orbital parameters

Period: 102.236 minutes

Inclination: 97.5385 deg

SMA: 7242.641 km

Apoapsis: 1188.903 km

Periapsis: 540.109 km

RAAN: 139.3254 deg

Eccentricy: 0.04478985

Argument of periapsis: 300.4703 deg

Mean anomaly: 55.295 deg

Mean motion: 14.08501536 rev/day

Mean motion (dot): 0.00000499 rev/day2

B* drag term: 0.00012587759 1/REarth

Two-line elements (TLE)

Creation date: Sept. 8, 2025, 3:16 a.m.

Reference frame: TEME

Reference center: EARTH

Epoch: Sept. 7, 2025, 11:19 p.m. UTC

TLE line 0: 0 SL-24 R/B

TLE line 1: 1 39228U 13042B 25250.97186147 .00000499 00000-0 12588-3 0 9990

TLE line 2: 2 39228 97.5385 139.3254 0447899 300.4703 55.2950 14.08501536614570

Live tracking on map

Real-time ground track for satellite SL-24 R/B.

In-orbit conjunctions

A list of the most updated potential collisions computed for object SL-24 R/B.

Target Orbit TCA Probability of collision Miss distance Type
FENGYUN 1C DEB SSO 2025-06-15 03:13:54 0.0004332122 616.0 (m) DEBRIS

Associated space launch

SL-24 R/B was lifted into orbit during the mission ‘Dnepr 1 | KOMPSat-5 (Arirang-5)’, on board a Dnepr space rocket.

The launch took place on Aug. 22, 2013, 2:39 p.m. from 370/13.

For more information about the launch, click the button.

Launch to space Dnepr 1 | KOMPSat-5 (Arirang-5)
Dnepr 1 | KOMPSat-5 (Arirang-5)

Agency: N/A

Status: Launch Successful

Launch date: Aug. 22, 2013, 2:39 p.m. UTC

Rocket: Dnepr

Launch pad: 370/13

Location: Dombarovskiy, Russian Federation

...

Latest news about this satellite

There are no fresh news available about this satellite. Check back as we update our databases every day.


Newsletter sign-up

Weekly statistics, charts and insights to help you stay on top of the space industry.